Kremmling, CO

4:54 PM MST on November 21, 2017 (GMT -0700)
Kremmling

Weather History for K20V - July, 2013

Change the Weather History Date:

Monday, July 15, 2013

  Actual Average Record
Temperature  
Mean Temperature 64 °F -  
Max Temperature 82 °F - 95 °F (2017)
Min Temperature 46 °F - 37 °F (2016)
Degree Days  
Heating Degree Days 1    
Month to date heating degree days  
Cooling Degree Days 0    
Month to date cooling degree days  
Growing Degree Days 14 (Base 50)    
Moisture  
Dew Point 46 °F    
Average Humidity 55    
Maximum Humidity 94    
Minimum Humidity 20    
Precipitation  
Precipitation 0.00 in - 0.08 in (2015)
Sea Level Pressure  
Sea Level Pressure 30.29 in    
Wind  
Wind Speed 3 mph (East)    
Max Wind Speed 22 mph    
Max Gust Speed 31 mph    
Visibility 10 miles    
Events Thunderstorm    
T = Trace of Precipitation, MM = Missing Value Source: NWS Daily Summary

Daily Weather History Graph

Daily Weather History Graph

Search for Another Location

Airport or City:

Trip Planner

Search our weather history database for the weather conditions in past years. The results will help you decide how hot, cold, wet, or windy it might be!

Date:

Astronomy

Jul. 15, 2013 Rise Set
Actual Time 5:49 AM MDT 8:33 PM MDT
Civil Twilight 5:17 AM MDT 9:05 PM MDT
Nautical Twilight 4:37 AM MDT 9:44 PM MDT
Astronomical Twilight 3:52 AM MDT 10:30 PM MDT
Moon 1:11 PM MDT (7/15) No Moon Set
Length of Visible Light 15h 47m
Length of Day
14h 43m
Waxing Crescent, 46% of the Moon is Illuminated
Jul 15
Waxing Crescent
Jul 15
First Quarter
Jul 22
Full
Jul 29
Last Quarter
Aug 6
New

Hourly Weather History & Observations

Time (MDT) Temp. Dew Point Humidity Pressure Visibility Wind Dir Wind Speed Gust Speed Precip Events Conditions
12:16 AM 55.4 °F 50.0 °F 82% 30.36 in 10.0 mi Calm Calm - N/A   Clear
12:36 AM 55.4 °F 50.0 °F 82% 30.36 in 10.0 mi Calm Calm - N/A   Clear
12:56 AM 55.4 °F 51.8 °F 88% 30.36 in 10.0 mi Calm Calm - N/A   Clear
1:16 AM 55.4 °F 50.0 °F 82% 30.36 in 10.0 mi Calm Calm - N/A   Clear
1:36 AM 53.6 °F 50.0 °F 88% 30.35 in 10.0 mi Calm Calm - N/A   Clear
1:56 AM 53.6 °F 50.0 °F 88% 30.34 in 10.0 mi Calm Calm - N/A   Clear
2:16 AM 51.8 °F 50.0 °F 94% 30.35 in 10.0 mi Calm Calm - N/A   Clear
2:36 AM 51.8 °F 46.4 °F 82% 30.35 in 10.0 mi Calm Calm - N/A   Clear
2:56 AM 51.8 °F 46.4 °F 82% 30.35 in 10.0 mi Calm Calm - N/A   Clear
3:16 AM 51.8 °F 48.2 °F 88% 30.34 in 10.0 mi Calm Calm - N/A   Clear
3:36 AM 50.0 °F 46.4 °F 87% 30.35 in 10.0 mi Calm Calm - N/A   Clear
3:56 AM 50.0 °F 46.4 °F 87% 30.35 in 10.0 mi Calm Calm - N/A   Clear
4:15 AM 50.0 °F 44.6 °F 82% 30.35 in 10.0 mi South 3.5 mph - N/A   Clear
4:36 AM 50.0 °F 46.4 °F 87% 30.35 in 10.0 mi Calm Calm - N/A   Clear
4:56 AM 50.0 °F 46.4 °F 87% 30.35 in 10.0 mi Calm Calm - N/A   Clear
5:16 AM 50.0 °F 44.6 °F 82% 30.35 in 10.0 mi Calm Calm - N/A   Clear
5:36 AM 46.4 °F 42.8 °F 87% 30.34 in 10.0 mi Calm Calm - N/A   Clear
5:56 AM 50.0 °F 46.4 °F 87% 30.35 in 10.0 mi Calm Calm - N/A   Clear
6:16 AM 50.0 °F 46.4 °F 87% 30.35 in 10.0 mi Calm Calm - N/A   Clear
6:36 AM 50.0 °F 44.6 °F 82% 30.35 in 10.0 mi Calm Calm - N/A   Clear
6:56 AM 50.0 °F 46.4 °F 87% 30.35 in 10.0 mi Calm Calm - N/A   Clear
7:16 AM 51.8 °F 46.4 °F 82% 30.35 in 10.0 mi Calm Calm - N/A   Clear
7:36 AM 53.6 °F 50.0 °F 88% 30.35 in 10.0 mi Calm Calm - N/A   Clear
7:56 AM 53.6 °F 48.2 °F 82% 30.36 in 10.0 mi Calm Calm - N/A   Clear
8:16 AM 55.4 °F 50.0 °F 82% 30.36 in 10.0 mi Calm Calm - N/A   Clear
8:36 AM 59.0 °F 50.0 °F 72% 30.35 in 10.0 mi Calm Calm - N/A   Clear
8:56 AM 59.0 °F 50.0 °F 72% 30.35 in 10.0 mi Calm Calm - N/A   Clear
9:16 AM 60.8 °F 48.2 °F 63% 30.34 in 10.0 mi Calm Calm - N/A   Clear
9:36 AM 64.4 °F 46.4 °F 52% 30.34 in 10.0 mi Calm Calm - N/A   Clear
9:56 AM 66.2 °F 48.2 °F 52% 30.33 in 10.0 mi Calm Calm - N/A   Clear
10:16 AM 69.8 °F 50.0 °F 49% 30.32 in 10.0 mi North 3.5 mph - N/A   Clear
10:36 AM 71.6 °F 50.0 °F 46% 30.31 in 10.0 mi Calm Calm - N/A   Clear
10:56 AM 73.4 °F 51.8 °F 47% 30.31 in 10.0 mi WNW 4.6 mph - N/A   Clear
11:16 AM 73.4 °F 48.2 °F 41% 30.30 in 10.0 mi WSW 4.6 mph - N/A   Clear
11:35 AM 77.0 °F 48.2 °F 36% 30.30 in 10.0 mi West 3.5 mph - N/A   Clear
11:55 AM 77.0 °F 44.6 °F 32% 30.29 in 10.0 mi North 3.5 mph - N/A   Clear
12:16 PM 77.0 °F 42.8 °F 29% 30.27 in 10.0 mi NNW 3.5 mph - N/A Thunderstorm Thunderstorm
12:36 PM 78.8 °F 42.8 °F 28% 30.26 in 10.0 mi WNW 5.8 mph - N/A Thunderstorm Clear
12:56 PM 80.6 °F 39.2 °F 23% 30.25 in 10.0 mi South 3.5 mph - N/A Thunderstorm Clear
1:16 PM 80.6 °F 41.0 °F 24% 30.25 in 10.0 mi WNW 3.5 mph - N/A   Clear
1:35 PM 82.4 °F 39.2 °F 21% 30.24 in 10.0 mi Calm Calm - N/A Thunderstorm Scattered Clouds
1:56 PM 78.8 °F 41.0 °F 26% 30.24 in 10.0 mi NNE 11.5 mph 16.1 mph N/A Thunderstorm Mostly Cloudy
2:16 PM 73.4 °F 42.8 °F 33% 30.24 in 10.0 mi NNE 21.9 mph 31.1 mph N/A Thunderstorm Thunderstorm
2:36 PM 78.8 °F 41.0 °F 26% 30.24 in 10.0 mi NNE 15.0 mph 26.5 mph N/A Thunderstorm Clear
2:56 PM 78.8 °F 37.4 °F 23% 30.22 in 10.0 mi North 5.8 mph - N/A Thunderstorm Thunderstorm
3:16 PM 78.8 °F 41.0 °F 26% 30.23 in 10.0 mi ENE 12.7 mph - N/A Thunderstorm Clear
3:36 PM 78.8 °F 41.0 °F 26% 30.24 in 10.0 mi ESE 11.5 mph - N/A Thunderstorm Thunderstorm
3:56 PM 78.8 °F 42.8 °F 28% 30.24 in 10.0 mi SE 21.9 mph - N/A Thunderstorm Clear
4:16 PM 80.6 °F 37.4 °F 21% 30.24 in 10.0 mi ESE 17.3 mph 25.3 mph N/A   Clear
4:36 PM 80.6 °F 37.4 °F 21% 30.22 in 10.0 mi ESE 11.5 mph 18.4 mph N/A   Clear
4:56 PM 80.6 °F 41.0 °F 24% 30.22 in 10.0 mi East 13.8 mph - N/A Thunderstorm Clear
5:16 PM 80.6 °F 35.6 °F 20% 30.22 in 10.0 mi ESE 11.5 mph - N/A Thunderstorm Thunderstorm
5:36 PM 80.6 °F 42.8 °F 26% 30.22 in 10.0 mi East 10.4 mph - N/A   Clear
5:56 PM 78.8 °F 44.6 °F 30% 30.22 in 10.0 mi ENE 11.5 mph - N/A   Clear
6:16 PM 77.0 °F 44.6 °F 32% 30.22 in 10.0 mi East 10.4 mph - N/A   Clear
6:36 PM 77.0 °F 46.4 °F 34% 30.22 in 10.0 mi East 10.4 mph - N/A   Clear
6:55 PM 77.0 °F 46.4 °F 34% 30.22 in 10.0 mi East 10.4 mph - N/A   Clear
7:16 PM 77.0 °F 44.6 °F 32% 30.22 in 10.0 mi ESE 12.7 mph - N/A   Clear
7:36 PM 75.2 °F 46.4 °F 36% 30.22 in 10.0 mi ESE 12.7 mph - N/A   Clear
7:56 PM 73.4 °F 46.4 °F 38% 30.22 in 10.0 mi ESE 11.5 mph - N/A   Clear
8:16 PM 73.4 °F 48.2 °F 41% 30.23 in 10.0 mi East 6.9 mph - N/A   Clear
8:36 PM 71.6 °F 46.4 °F 41% 30.23 in 10.0 mi ESE 6.9 mph - N/A   Clear
8:56 PM 69.8 °F 46.4 °F 43% 30.24 in 10.0 mi ESE 6.9 mph - N/A   Clear
9:16 PM 69.8 °F 46.4 °F 43% 30.25 in 10.0 mi ESE 6.9 mph - N/A   Clear
9:36 PM 66.2 °F 48.2 °F 52% 30.26 in 10.0 mi ESE 11.5 mph - N/A   Clear
9:56 PM 64.4 °F 46.4 °F 52% 30.27 in 10.0 mi ESE 8.1 mph - N/A   Clear
10:16 PM 64.4 °F 46.4 °F 52% 30.27 in 10.0 mi ESE 6.9 mph - N/A   Clear
10:35 PM 62.6 °F 46.4 °F 55% 30.27 in 10.0 mi ESE 8.1 mph - N/A   Clear
10:56 PM 60.8 °F 46.4 °F 59% 30.28 in 10.0 mi SE 4.6 mph - N/A   Clear
11:16 PM 60.8 °F 46.4 °F 59% 30.28 in 10.0 mi Calm Calm - N/A   Clear
11:36 PM 59.0 °F 46.4 °F 63% 30.28 in 10.0 mi Calm Calm - N/A   Clear
11:56 PM 59.0 °F 46.4 °F 63% 30.28 in 10.0 mi Calm Calm - N/A   Clear